sat.trackr.live / text

‹ back to catalog

STARLINK-1672

NORAD 46537 · 2020-070F

PAYLOAD ACTIVE UNKNOWN

§ Identity

Operator
Country
US
Launch date
2020-10-06
Launch site
AFETR
Launch vehicle
Mass (kg)
RCS (m²)

Purposes: comms

External: N2YO · Heavens-Above · Gunter

§ Orbital elements

Epoch: 2026-09-20T06:00:02.000160Z

Period
90.14 min
Inclination
53.0284°
Eccentricity
0.0002467
Mean motion
15.97509518 rev/d
Perigee alt
279.7 km
Apogee alt
283.0 km
Semi-major
6,659.5 km
B*
2.3741e-3
RAAN
260.0181°
Arg perigee
79.9682°
Mean anomaly
10.5536°
Rev number
580

§ Raw data

STARLINK-16721 46537U 20070F   26263.25002315  .01073743  56207-3  23741-2 0  99982 46537  53.0284 260.0181 0002467  79.9682  10.5536 15.97509518  5800

JSON: /api/v1/satellites/46537 · /tle

For live sub-satellite position, see the globe view (requires WebGL).

§ Visibility from observer

Set your observer location to see the next 7 days of passes ≥ 10°. The values pass through the URL so the page stays shareable.

No JS? Fill the form by hand. The geolocation button needs JavaScript.